Weather History for Corvallis, OR

Change the Weather History Date:

Saturday, March 15, 2014

  Actual Average Record
Temperature  
Mean Temperature 52 °F -  
Max Temperature 64 °F 55 °F 71 °F (2005)
Min Temperature 39 °F 38 °F 26 °F (2005)
Degree Days  
Heating Degree Days 14    
Growing Degree Days 2 (Base 50)    
Moisture  
Dew Point 45 °F    
Average Humidity 80    
Maximum Humidity 93    
Minimum Humidity 56    
Precipitation  
Precipitation 0.00 in - - ()
Sea Level Pressure  
Sea Level Pressure 30.32 in    
Wind  
Wind Speed 4 mph (WSW)    
Max Wind Speed 16 mph    
Max Gust Speed 18 mph    
Visibility 10 miles    
Events      
Averages and records for this station are not official NWS values.
T = Trace of Precipitation, MM = Missing Value Source: NWS Daily Summary

Daily Weather History Graph

Daily Weather History Graph

Search for Another Location

Airport:

Trip Planner

Search our weather history database for the weather conditions in past years. The results will help you decide how hot, cold, wet, or windy it might be!

Date:

Astronomy

Mar. 15, 2014 Rise Set
Actual Time 7:25 AM PDT 7:19 PM PDT
Civil Twilight 6:56 AM PDT 7:48 PM PDT
Nautical Twilight 6:22 AM PDT 8:22 PM PDT
Astronomical Twilight 5:48 AM PDT 8:56 PM PDT
Moon 6:44 PM PDT (3/15) 6:41 AM PDT (3/15)
Length of Visible Light 12h 52m
Length of Day
11h 54m
Waxing Gibbous, 99% of the Moon is Illuminated
Mar 15
Waxing Gibbous
Mar 16
Full
Mar 23
Last Quarter
Mar 30
New
Apr 7
First Quarter

Hourly Weather History & Observations

Time (PDT) Temp. Windchill Dew Point Humidity Pressure Visibility Wind Dir Wind Speed Gust Speed Precip Events Conditions
12:15 AM 44.6 °F 43.1 °F 39.2 °F 81% 30.33 in 10.0 mi NNW 3.5 mph - N/A   Clear
12:35 AM 42.8 °F 40.1 °F 39.2 °F 87% 30.33 in 10.0 mi West 4.6 mph - N/A   Clear
12:55 AM 42.8 °F 40.1 °F 39.2 °F 87% 30.33 in 10.0 mi WNW 4.6 mph - N/A   Clear
1:15 AM 42.8 °F 39.3 °F 39.2 °F 87% 30.33 in 10.0 mi WNW 5.8 mph - N/A   Clear
1:35 AM 42.8 °F 40.1 °F 39.2 °F 87% 30.33 in 10.0 mi WNW 4.6 mph - N/A   Clear
1:55 AM 41.0 °F 39.0 °F 39.2 °F 93% 30.33 in 10.0 mi SW 3.5 mph - N/A   Clear
2:15 AM 39.2 °F 37.0 °F 37.4 °F 93% 30.32 in 10.0 mi WSW 3.5 mph - N/A   Clear
2:35 AM 41.0 °F 39.0 °F 37.4 °F 87% 30.32 in 10.0 mi NW 3.5 mph - N/A   Clear
2:55 AM 42.8 °F - 39.2 °F 87% 30.32 in 10.0 mi Calm Calm - N/A   Clear
3:15 AM 39.2 °F - 37.4 °F 93% 30.32 in 10.0 mi Calm Calm - N/A   Clear
3:35 AM 39.2 °F 37.0 °F 35.6 °F 87% 30.31 in 10.0 mi South 3.5 mph - N/A   Clear
3:55 AM 39.2 °F - 37.4 °F 93% 30.31 in 10.0 mi Calm Calm - N/A   Clear
4:15 AM 39.2 °F - 37.4 °F 93% 30.31 in 10.0 mi Calm Calm - N/A   Clear
4:35 AM 39.2 °F - 37.4 °F 93% 30.31 in 10.0 mi Calm Calm - N/A   Clear
4:55 AM 39.2 °F - 37.4 °F 93% 30.30 in 10.0 mi Calm Calm - N/A   Clear
5:15 AM 39.2 °F 37.0 °F 35.6 °F 87% 30.31 in 10.0 mi WNW 3.5 mph - N/A   Clear
5:35 AM 39.2 °F - 37.4 °F 93% 30.31 in 10.0 mi Calm Calm - N/A   Clear
5:55 AM 39.2 °F - 35.6 °F 87% 30.31 in 10.0 mi Calm Calm - N/A   Mostly Cloudy
6:15 AM 39.2 °F - 37.4 °F 93% 30.32 in 10.0 mi Calm Calm - N/A   Overcast
6:35 AM 39.2 °F - 37.4 °F 93% 30.32 in 10.0 mi Calm Calm - N/A   Mostly Cloudy
6:55 AM 39.2 °F - 37.4 °F 93% 30.32 in 10.0 mi Calm Calm - N/A   Overcast
7:15 AM 39.2 °F - 37.4 °F 93% 30.32 in 10.0 mi Calm Calm - N/A   Overcast
7:35 AM 39.2 °F - 37.4 °F 93% 30.32 in 10.0 mi Calm Calm - N/A   Overcast
7:55 AM - - - N/A% 30.32 in 10.0 mi Calm Calm - N/A   Overcast
8:15 AM - - - N/A% 30.31 in 10.0 mi Calm Calm - N/A   Overcast
8:35 AM 41.0 °F - 39.2 °F 93% 30.32 in 10.0 mi Calm Calm - N/A   Scattered Clouds
8:55 AM 42.8 °F - 39.2 °F 87% 30.33 in 10.0 mi Calm Calm - N/A   Clear
9:15 AM 42.8 °F - 41.0 °F 93% 30.34 in 10.0 mi Calm Calm - N/A   Clear
9:35 AM 44.6 °F - 42.8 °F 93% 30.34 in 10.0 mi Calm Calm - N/A   Clear
9:55 AM 48.2 °F - 42.8 °F 82% 30.33 in 10.0 mi SSE 4.6 mph - N/A   Clear
10:15 AM 48.2 °F - 42.8 °F 82% 30.34 in 10.0 mi Calm Calm - N/A   Clear
10:35 AM 50.0 °F - 42.8 °F 76% 30.34 in 10.0 mi Calm Calm - N/A   Clear
10:55 AM 55.4 °F - 44.6 °F 67% 30.35 in 10.0 mi South 10.4 mph - N/A   Clear
11:15 AM 55.4 °F - 44.6 °F 67% 30.34 in 10.0 mi South 11.5 mph - N/A   Clear
11:35 AM 55.4 °F - 44.6 °F 67% 30.34 in 10.0 mi South 8.1 mph - N/A   Clear
11:55 AM 57.2 °F - 46.4 °F 67% 30.34 in 10.0 mi South 9.2 mph - N/A   Clear
12:15 PM 60.8 °F - 48.2 °F 63% 30.34 in 10.0 mi SSW 4.6 mph - N/A   Clear
12:35 PM 60.8 °F - 48.2 °F 63% 30.35 in 10.0 mi SSW 4.6 mph - N/A   Clear
12:55 PM 62.6 °F - 48.2 °F 59% 30.34 in 10.0 mi ENE 3.5 mph - N/A   Clear
1:15 PM 64.4 °F - 48.2 °F 56% 30.34 in 10.0 mi ESE 3.5 mph - N/A   Partly Cloudy
1:35 PM 64.4 °F - 50.0 °F 59% 30.33 in 10.0 mi Calm Calm - N/A   Mostly Cloudy
1:55 PM 62.6 °F - 50.0 °F 63% 30.32 in 10.0 mi West 6.9 mph - N/A   Mostly Cloudy
2:15 PM 64.4 °F - 51.8 °F 64% 30.32 in 10.0 mi West 16.1 mph - N/A   Overcast
2:35 PM 64.4 °F - 51.8 °F 64% 30.31 in 10.0 mi West 13.8 mph 18.4 mph N/A   Mostly Cloudy
2:55 PM - - - N/A% 30.31 in 10.0 mi West 11.5 mph - N/A   Mostly Cloudy
3:15 PM 64.4 °F - 51.8 °F 64% 30.32 in 10.0 mi West 11.5 mph - N/A   Partly Cloudy
3:35 PM 64.4 °F - 51.8 °F 64% 30.32 in 10.0 mi West 11.5 mph - N/A   Clear
3:55 PM 64.4 °F - 51.8 °F 64% 30.32 in 10.0 mi West 12.7 mph - N/A   Clear
4:15 PM 62.6 °F - 51.8 °F 68% 30.32 in 10.0 mi West 10.4 mph - N/A   Partly Cloudy
4:35 PM 62.6 °F - 51.8 °F 68% 30.31 in 10.0 mi WNW 9.2 mph - N/A   Scattered Clouds
4:55 PM 62.6 °F - 51.8 °F 68% 30.31 in 10.0 mi WNW 10.4 mph - N/A   Scattered Clouds
5:15 PM 62.6 °F - 51.8 °F 68% 30.31 in 10.0 mi WNW 11.5 mph - N/A   Mostly Cloudy
5:35 PM 62.6 °F - 51.8 °F 68% 30.31 in 10.0 mi West 11.5 mph - N/A   Mostly Cloudy
5:55 PM 62.6 °F - 51.8 °F 68% 30.30 in 10.0 mi West 9.2 mph - N/A   Overcast
6:15 PM 60.8 °F - 51.8 °F 72% 30.30 in 10.0 mi West 9.2 mph - N/A   Mostly Cloudy
6:35 PM 60.8 °F - 51.8 °F 72% 30.30 in 10.0 mi West 8.1 mph - N/A   Partly Cloudy
6:55 PM 57.2 °F - 51.8 °F 82% 30.30 in 10.0 mi West 8.1 mph - N/A   Clear
7:15 PM 55.4 °F - 50.0 °F 82% 30.31 in 10.0 mi NW 5.8 mph - N/A   Clear
7:35 PM 57.2 °F - 50.0 °F 77% 30.31 in 10.0 mi West 8.1 mph - N/A   Partly Cloudy
7:55 PM - - - N/A% 30.31 in 10.0 mi West 12.7 mph - N/A   Partly Cloudy
8:15 PM - - - N/A% 30.31 in 10.0 mi West 4.6 mph - N/A   Clear
8:35 PM 53.6 °F - 50.0 °F 88% 30.32 in 10.0 mi Calm Calm - N/A   Scattered Clouds
8:55 PM - - - N/A% 30.32 in 10.0 mi Calm Calm - N/A   Overcast
9:15 PM - - - N/A% 30.33 in 10.0 mi Calm Calm - N/A   Overcast
9:35 PM 55.4 °F - 50.0 °F 82% 30.34 in 10.0 mi Calm Calm - N/A   Overcast
9:55 PM 55.4 °F - 50.0 °F 82% 30.34 in 10.0 mi Calm Calm - N/A   Overcast
10:15 PM 53.6 °F - 50.0 °F 88% 30.36 in 10.0 mi Calm Calm - N/A   Overcast
10:35 PM 55.4 °F - 48.2 °F 77% 30.35 in 10.0 mi WSW 3.5 mph - N/A   Overcast
10:55 PM 53.6 °F - 48.2 °F 82% 30.35 in 10.0 mi South 3.5 mph - N/A   Mostly Cloudy
11:15 PM 53.6 °F - 48.2 °F 82% 30.36 in 10.0 mi SSW 5.8 mph - N/A   Overcast
11:35 PM 53.6 °F - 48.2 °F 82% 30.37 in 10.0 mi SW 5.8 mph - N/A   Overcast
11:55 PM 53.6 °F - 48.2 °F 82% 30.37 in 10.0 mi South 8.1 mph - N/A   Overcast